STARLINK-3136 (49443 NORAD) Tracking and Keplerian Element Data

This shows tracking and keplerian element data for the satellite.

Feedback or suggestion? Click here.




ElementValue
Catalog49443
NameSTARLINK-3136
Epoch Orbit479
Epoch Day339.91667824
Epoch Year2021
RAAN22.2204
Inclination53.2185
Eccentricity0.0001724
Argument of Perigee26.8489
Mean Anonmoly49.7061
Mean Motion15.73179397
Decay Rate0.00046319
L11 49443U 21104AM 21339.91667824 .00046319 00000+0 33291-3 0 9996
L22 49443 53.2185 22.2204 0001724 26.8489 49.7061 15.73179397 4792

Live tracking and technical data element details for STARLINK-3136 (NORAD 49443). STARLINK-3136 can be tracked NOW for your location showing map with azimuth and elevation plus other details from your city location.

Track the satellite on the map from your city or location and see movement details for azimuth, elevation, latitude, longitude, range, height, and movement on the map or in text.







IsCatalogInMostPopularTable: catalog: 49443, numindb: 1
Update: records affected: 1



GetName: 49443 STARLINK-3136

Hit Count: updated at: Wed, 08 Dec 2021 15:11:10 GMT